{"data":{"norad_id":64040,"intl_designator":"2025-102U","name":"STARLINK-34117","alt_names":[],"object_type":"PAYLOAD","status":"ACTIVE","operator":null,"country":"US","launch_date":"2025-05-16","launch_site_code":"AFWTR","launch_vehicle":null,"mission":null,"orbit_class":"UNKNOWN","rcs_meters":null,"size_class":null,"mass_kg":null,"dimensions":null,"purposes":["comms"],"wikipedia_slug":null,"has_3d_model":false,"image_url":null,"decayed_at":null,"tle_current":{"epoch":"2026-09-20T13:32:42.727488Z","epoch_age_seconds":137995,"freshness":"FRESH","line1":"1 64040U 25102U   26263.56438342 -.00008840  00000+0 -30360-3 0  9994","line2":"2 64040  70.0014 340.6643 0002831 275.1399  84.9453 15.29565210 75140","mean_motion":15.2956521,"eccentricity":0.0002831,"inclination_deg":70.0014,"raan_deg":340.6643,"arg_perigee_deg":275.1399,"mean_anomaly_deg":84.9453,"bstar":-0.0003036,"rev_number":7514,"period_min":94.144400682335,"perigee_km":475.17037267491,"apogee_km":479.0518141454,"semimajor_km":6855.2480934102,"source":"CELESTRAK","updated_at":"2026-09-21T09:00:35.189518Z"}}}